Wind_Speed
8 7 5 6 6 6 8 8 9 10 11 12 13 14 15 14 15 14 14 14 14 19 20 20 23 25 29 31 32 30 30 28 17 26 27 36 34 32 35 24 23 23 25
10 7 7 7 7 7 8 9 10 11 12 13 15 17 16 15 17 14 16 16 16 17 18 18 21 25 28 30 35 30 29 29 28 23 25 28 33 27 26 27 18 19 24
11 9 8 8 8 8 9 9 10 11 13 15 16 17 17 17 15 15 16 15 15 15 15 16 19 21 25 28 37 27 25 28 29 28 26 28 31 23 26 29 27 26 28
9 9 8 8 9 10 10 9 10 12 14 16 16 17 16 17 18 17 15 13 14 15 14 13 16 17 21 28 32 31 25 23 27 28 27 27 29 30 27 29 25 28 27
10 10 9 9 10 10 10 11 12 13 15 16 16 17 17 18 18 5 11 15 16 16 14 13 13 19 24 24 26 31 30 25 26 23 24 25 27 29 27 27 25 22 26
12 10 9 9 10 11 11 11 12 14 14 15 15 17 18 18 14 16 17 16 17 16 15 15 16 20 22 27 32 36 31 27 26 23 24 24 28 29 29 25 25 21 10
14 12 12 11 11 11 11 11 12 13 15 14 15 15 16 17 15 15 18 17 19 18 17 17 19 20 21 22 35 33 32 30 29 32 29 29 33 32 30 25 21 23 23
15 15 14 12 12 11 12 13 12 13 14 13 15 16 15 16 17 15 18 19 20 20 20 22 21 23 25 27 34 35 41 35 32 30 31 40 39 31 33 35 27 29 23
18 17 16 14 14 13 13 13 13 12 13 13 16 18 15 17 15 18 17 17 21 19 21 22 21 23 24 28 35 36 41 39 34 33 37 41 39 36 31 25 30 19 17
20 18 16 15 13 13 14 12 11 14 14 15 15 14 16 19 18 10 11 14 17 17 20 20 21 21 23 25 31 34 37 42 45 38 30 33 41 41 37 35 24 24 21
19 18 16 15 13 13 12 10 19 15 14 14 14 17 18 27 19 15 10 10 13 16 19 21 20 21 24 24 30 37 41 50 40 23 19 25 31 32 34 36 32 25 23
18 18 16 13 13 13 13 11 13 12 14 15 14 20 16 17 20 16 9 10 14 14 18 19 20 20 20 25 25 33 32 39 39 36 13 18 21 25 29 29 31 29 28
17 18 16 11 13 13 14 10 11 16 13 10 24 11 23 17 4 6 9 15 17 16 18 18 16 15 20 26 24 25 30 32 36 35 26 21 11 16 23 25 28 28 29
16 10 12 13 14 11 10 12 16 13 12 17 14 15 16 28 10 14 17 17 16 15 15 16 10 12 20 17 20 23 28 33 27 30 32 29 27 11 8 24 24 26 24
10 11 11 11 10 10 9 6 7 5 6 11 11 12 11 14 14 18 18 14 13 14 17 12 11 14 19 21 24 23 24 28 27 22 25 28 32 27 26 7 15 21 20
9 13 13 10 11 15 7 7 2 3 4 6 6 8 7 11 13 14 11 12 14 12 11 9 10 12 14 17 20 22 23 24 26 30 27 24 23 31 32 34 26 20 17
8 8 10 6 9 2 1 5 6 0 3 4 9 10 7 11 12 11 10 7 11 13 8 10 10 13 14 17 17 19 21 24 23 23 24 25 21 21 26 26 21 23 22
7 6 8 7 4 3 1 3 2 3 5 5 1 4 10 12 14 11 7 10 5 6 9 11 12 11 12 14 18 19 20 21 25 27 23 23 24 22 16 18 22 22 19
7 2 3 5 4 4 3 4 4 6 4 2 0 2 4 10 9 13 13 12 12 11 10 10 12 13 13 14 16 17 18 20 21 21 24 25 26 22 22 14 10 12 16
1 4 4 5 7 6 6 5 3 1 2 4 7 7 8 5 8 8 9 10 10 9 9 10 11 11 13 13 14 17 16 19 21 21 20 20 22 21 20 17 18 14 14
4 5 6 7 6 4 3 1 3 4 4 1 6 6 4 4 3 5 6 8 8 8 8 9 9 10 12 14 15 16 17 15 19 20 19 20 20 22 22 23 16 16 18
4 6 7 5 6 6 4 3 4 4 3 2 2 4 6 4 3 3 4 5 5 6 6 8 8 9 10 11 13 13 13 15 16 18 18 18 18 17 18 22 21 19 18
4 4 1 2 3 2 5 5 3 5 3 4 4 5 6 7 3 1 2 3 3 5 6 6 7 8 9 10 11 12 12 11 13 15 16 17 17 17 16 16 17 17 17
4 3 3 6 5 8 5 5 3 4 4 4 4 2 2 1 4 2 1 2 4 5 5 5 7 9 9 9 11 11 12 12 11 12 15 15 15 16 16 16 14 15 14
4 4 6 7 6 8 3 8 5 5 5 3 3 3 2 1 1 2 2 3 3 3 4 4 5 6 9 11 12 12 11 13 15 13 12 13 14 14 15 15 14 15 16
5 5 7 6 6 5 6 6 6 6 6 5 4 4 3 3 2 2 2 1 2 2 1 2 3 4 5 7 10 10 11 9 13 14 14 12 13 14 13 13 14 13 13
Wind_Direction
205 229 250 257 238 245 261 271 279 285 286 285 292 301 299 293 290 289 292 293 314 318 320 323 322 316 311 302 287 274 262 248 245 254 246 256 265 245 240 249 223 226 239
211 219 238 241 238 252 264 277 287 288 289 286 291 295 294 295 297 295 288 295 304 312 318 323 331 327 321 313 309 276 263 256 246 248 241 247 254 235 230 222 222 229 238
203 215 230 235 240 248 265 277 286 290 292 293 295 294 294 289 295 291 291 289 295 306 310 319 329 333 334 333 324 295 272 263 250 248 246 242 253 253 228 227 231 232 240
213 219 230 232 237 249 264 271 280 287 295 296 295 292 291 284 279 276 283 280 290 296 302 310 318 335 339 351 340 322 333 292 263 247 243 239 241 246 234 220 228 228 235
203 219 233 236 237 253 264 272 284 292 295 294 290 286 288 286 279 307 271 284 286 290 296 297 303 329 333 337 337 324 320 312 306 254 240 236 237 239 231 231 224 225 227
209 220 233 240 242 254 265 270 280 289 292 292 294 291 290 288 289 298 286 278 282 283 292 297 302 314 340 337 334 333 318 305 290 278 254 232 234 233 239 215 212 225 219
206 218 229 234 238 247 262 271 281 283 286 298 296 289 289 288 294 293 292 273 279 279 286 294 302 305 312 320 338 329 322 316 295 276 262 254 238 227 235 239 221 220 229
208 219 225 230 236 244 251 262 270 270 284 298 290 287 288 293 298 305 298 274 279 282 283 297 292 301 304 312 330 330 328 316 302 286 264 253 250 230 223 231 224 223 232
216 220 222 229 235 242 251 256 261 267 280 278 274 274 271 276 297 298 291 281 287 286 286 293 303 303 305 305 330 331 321 314 308 286 274 253 245 237 222 220 223 216 223
220 224 226 231 235 243 253 272 277 272 267 266 275 293 295 290 284 262 281 283 294 292 298 304 310 309 315 316 329 331 320 320 315 300 268 244 229 231 228 224 221 215 220
226 228 228 232 233 249 254 246 242 260 271 277 284 287 296 311 286 297 276 289 295 297 298 306 311 314 323 324 328 328 327 332 327 308 245 222 214 219 221 225 222 220 222
233 236 238 227 231 247 254 245 247 260 264 260 268 279 296 256 255 267 265 319 308 293 295 308 321 330 334 327 333 339 355 353 359 5 302 220 210 211 215 214 217 221 228
241 230 240 242 239 257 259 253 258 253 256 294 278 317 302 305 228 150 348 329 312 287 297 305 316 336 326 336 340 346 350 2 10 9 4 10 359 233 214 214 218 219 224
238 230 244 246 248 261 269 267 262 268 239 279 294 305 339 295 62 358 336 329 321 302 314 313 311 338 339 357 1 11 8 8 3 9 5 11 29 32 247 229 213 209 212
221 222 230 240 239 250 209 259 301 349 329 308 324 318 331 327 342 335 330 339 327 315 314 319 346 349 359 1 1 8 8 9 0 4 12 20 22 28 32 40 222 206 208
234 230 245 273 299 294 147 120 197 209 306 317 312 328 334 329 326 333 335 343 344 329 318 345 358 5 8 7 2 4 5 7 0 9 360 13 24 32 32 34 35 69 70
259 281 279 256 266 13 47 222 214 252 307 338 353 1 356 3 351 339 340 337 2 345 358 7 13 14 16 15 10 9 8 13 19 10 10 7 8 31 42 38 39 52 56
264 254 268 279 65 18 45 71 17 317 327 281 23 41 7 18 23 6 335 298 307 5 19 23 20 19 18 11 10 13 12 13 18 17 15 12 23 24 41 45 46 44 38
277 345 175 86 99 117 129 124 151 170 155 17 272 247 47 7 4 20 16 34 39 30 22 30 24 22 20 18 17 16 18 16 12 19 20 15 14 14 18 41 60 65 62
68 119 152 157 154 135 125 130 131 312 356 10 359 15 346 356 12 24 43 53 60 46 35 35 35 29 20 15 12 13 18 15 14 18 18 20 16 15 18 25 38 36 48
176 153 138 132 136 138 147 171 248 238 240 174 80 49 56 35 60 50 50 55 57 47 26 22 21 23 21 22 22 20 17 21 20 11 12 19 20 18 9 13 32 41 38
211 195 202 206 195 215 214 207 221 228 186 215 147 139 121 74 53 60 48 48 38 30 22 14 16 19 17 21 20 19 19 19 18 15 14 15 16 14 21 24 23 29 33
135 211 194 6 321 10 240 239 245 262 208 217 179 177 175 139 133 78 52 17 25 29 19 14 18 19 21 23 26 24 20 16 13 15 17 17 18 12 18 20 29 27 21
130 124 219 247 272 294 270 247 201 259 277 208 193 203 169 162 133 78 105 28 38 35 29 28 40 41 37 34 31 23 27 35 26 14 16 22 24 23 26 21 25 22 19
213 241 252 264 240 244 232 251 217 205 202 196 204 212 190 182 121 106 84 71 65 53 49 41 41 49 50 48 40 34 34 49 50 43 40 23 26 21 28 29 25 29 26
257 249 265 272 257 251 238 230 218 217 216 218 212 216 202 186 155 132 112 78 50 66 40 53 61 66 58 39 35 38 41 55 60 50 38 26 27 29 21 22 20 27 26
Height
808 809 811 812 813 814 815 815 814 814 813 812 811 808 806 804 802 800 800 798 796 795 793 791 787 784 779 774 769 764 762 760 756 753 756 755 754 753 752 757 756 758 761
802 805 808 810 811 812 812 812 811 810 810 809 807 805 803 801 799 797 796 795 794 793 790 788 785 781 776 771 763 755 752 751 750 747 747 747 746 748 746 748 749 752 753
798 802 804 807 808 809 810 809 809 808 806 805 803 801 798 796 795 794 792 792 791 789 786 785 782 779 772 767 759 747 745 743 741 740 739 741 739 738 740 742 744 746 747
793 796 800 803 805 805 806 806 806 805 803 801 799 797 795 792 790 788 788 788 787 785 783 780 779 775 769 762 757 750 742 737 734 732 731 732 733 732 732 735 737 740 741
790 794 797 799 801 802 802 802 802 801 800 798 795 792 790 787 784 784 785 783 782 781 779 776 773 769 766 761 755 748 741 734 730 718 722 724 724 724 723 725 727 731 733
788 790 793 795 796 798 798 798 797 796 795 793 791 789 786 783 781 781 780 779 778 776 773 771 768 764 758 754 749 743 738 731 725 720 712 713 713 715 716 715 720 724 727
783 786 788 791 792 793 793 793 793 793 791 789 788 786 783 780 778 777 775 774 772 771 769 766 763 759 754 749 742 735 728 721 717 713 708 703 703 704 708 710 711 716 718
778 781 784 786 787 788 788 789 789 788 787 786 785 782 779 777 774 773 772 770 768 766 764 762 758 755 750 742 735 725 717 711 705 701 695 691 693 694 697 703 707 710 714
773 776 778 780 781 782 783 783 783 782 782 781 778 776 773 771 769 768 767 766 762 761 759 756 753 748 743 739 730 720 710 699 692 685 680 678 680 685 690 696 700 704 706
767 770 773 774 775 776 777 781 784 783 778 775 773 771 770 767 763 761 761 761 758 757 754 751 747 742 739 734 727 719 706 691 677 664 659 660 668 675 681 688 691 695 699
762 765 767 769 771 772 773 775 784 777 774 771 770 769 768 767 760 758 758 756 754 752 749 746 743 739 735 729 724 717 707 687 667 650 648 651 658 666 672 678 684 688 690
759 760 762 764 766 766 768 769 770 769 768 767 766 764 764 761 758 753 756 753 752 750 746 743 740 735 731 725 721 714 704 688 669 655 649 649 652 658 664 670 676 680 685
755 756 759 762 764 764 764 767 765 763 764 767 765 756 759 754 752 752 752 750 747 745 744 741 737 734 729 722 719 714 705 694 681 669 663 656 651 655 659 664 669 674 678
751 754 758 760 762 760 762 760 758 759 758 757 758 757 755 753 749 749 749 747 745 743 740 738 736 733 729 725 719 714 709 704 692 684 675 666 658 654 654 657 662 666 672
751 753 755 755 755 754 756 758 760 760 760 761 760 759 756 753 752 751 749 747 745 742 739 736 735 733 731 727 722 718 712 706 697 693 687 678 668 662 657 655 657 661 666
750 750 748 748 748 749 751 756 759 760 761 763 761 759 759 756 754 752 749 747 744 741 738 735 735 736 735 733 728 722 717 712 706 697 692 684 679 671 667 664 662 659 665
751 749 747 747 747 749 752 755 756 760 761 761 761 758 758 757 754 752 749 747 745 741 738 738 739 738 737 735 733 728 723 718 713 709 702 696 688 683 680 679 682 671 672
750 748 748 745 748 751 754 755 757 758 760 761 760 760 759 758 756 753 749 746 745 745 745 744 744 744 741 739 735 732 729 724 719 714 711 706 700 695 691 689 687 684 684
747 745 746 749 750 753 756 756 758 759 759 759 760 760 759 759 758 755 752 749 749 751 751 750 749 747 745 743 739 735 732 729 725 720 715 710 706 703 700 696 697 696 696
749 747 748 749 753 755 757 758 759 761 761 760 760 759 760 759 761 760 758 757 756 757 758 756 754 751 748 745 742 739 737 733 729 726 724 720 717 714 711 709 705 704 700
748 751 748 751 755 757 758 759 759 757 759 760 763 762 763 763 764 763 762 760 760 759 759 758 756 754 752 749 745 743 741 740 736 733 729 726 723 720 717 713 711 710 708
747 749 751 751 752 752 753 754 756 757 758 760 763 764 764 764 766 764 763 762 762 760 759 759 758 756 755 753 751 749 746 744 740 737 734 731 729 727 724 721 719 717 715
747 749 749 750 751 752 753 752 753 754 755 757 758 760 761 764 767 765 763 763 762 761 761 762 761 758 756 755 753 751 749 746 745 742 739 736 734 731 728 726 724 723 722
748 749 751 752 752 751 750 751 752 756 756 756 757 759 759 761 762 764 763 762 762 762 762 763 762 761 758 757 755 754 751 748 748 745 742 742 740 736 733 731 729 728 727
746 747 748 747 748 749 749 752 752 753 754 756 758 759 760 761 761 762 762 763 763 764 764 764 763 762 762 760 757 755 753 750 749 748 746 747 744 741 738 737 734 732 730
743 744 746 746 748 749 750 750 752 754 755 756 758 759 760 761 762 763 763 764 764 765 766 766 766 765 763 762 759 758 756 754 753 751 749 749 748 746 744 742 740 737 736